Location: *
(57.8420°S, 159.8600°W)
Time: 05:28:27
(UTC+00:00)

SAR-Lupe-4 - Pass Details

Date: 18 May 2021
Orbit: 483 x 483 km, 98.2° (Epoch: 13 April)

Event Time Altitude Azimuth Distance (km) Brightness Sun altitude
Rises 04:06:59 0° 39° (NE) 2,569 7.0 -12.8°
Reaches altitude 10° 04:09:07 10° 46° (NE) 1,695 6.0 -13.0°
Maximum altitude 04:12:33 40° 116° (ESE) 751 4.0 -13.5°
Drops below altitude 10° 04:16:01 10° 185° (S) 1,716 6.2 -13.9°
Sets 04:18:11 0° 192° (SSW) 2,606 7.3 -14.2°
